Regional Weather Roundup
Issued by NWS

Home | Current Version | Previous Version | Text Only | Print | Product List | Glossary On
Versions: 1 2 3 4 5 6 7 8 9 10 11 12 13 14 15 16 17 18 19 20 21 22 23 24 25 26 27 28 29 30 31 32 33 34 35 36 37 38 39 40 41 42 43 44 45 46 47 48 49 50
000
ASUS45 KBOI 060410
RWRID

IDAHO REGIONAL WEATHER ROUNDUP
NATIONAL WEATHER SERVICE BOISE ID
1000 PM MDT SUN JUL 05 2015

NOTE: "FAIR" INDICATES FEW OR NO CLOUDS BELOW 12000 FEET
WITH NO SIGNIFICANT WEATHER AND/OR OBSTRUCTIONS TO VISIBILITY

IDZ012-014-060500-
SOUTHWEST IDAHO


CITY           SKY/WX    TMP DP  RH WIND       PRES   REMARKS
BOISE          PTCLDY    73  54  51 SE6       29.95R
CALDWELL       PTCLDY    72  54  53 E3        29.93R
MOUNTAIN HOME  CLOUDY    76  51  41 W6        29.96R
$$

IDZ016-017-060500-
SOUTHCENTRAL IDAHO


CITY           SKY/WX    TMP DP  RH WIND       PRES   REMARKS
BURLEY         MOCLDY    67  56  67 S6        30.02R
JEROME         MOCLDY    72  52  49 SW8       30.02R
TWIN FALLS     PTCLDY    71  52  50 S10       30.01R
$$

IDZ019>023-060500-
SOUTHEAST IDAHO


CITY           SKY/WX    TMP DP  RH WIND       PRES   REMARKS
IDAHO FALLS    CLOUDY    70  55  59 SE7       30.03R
POCATELLO      CLEAR     71  51  49 S12       30.04R
REXBURG        MOCLDY    68  55  63 VRB5      30.05R
$$

IDZ006-010-011-018-031-032-060500-
CENTRAL IDAHO MOUNTAINS


CITY           SKY/WX    TMP DP  RH WIND       PRES   REMARKS
MCCALL         MOCLDY    69  52  54 CALM      30.07R
HAILEY         PTCLDY    68  46  45 NW5       30.08S
STANLEY          N/A     54  44  69 S6        30.20R
SALMON         CLOUDY    72  52  49 SE5       29.99R
CHALLIS        CLOUDY    75  39  27 W9        30.06R
$$

IDZ002-004-006-007-026-060500-
NORTHERN IDAHO


CITY           SKY/WX    TMP DP  RH WIND       PRES   REMARKS
LEWISTON       CLEAR     85  49  28 N12       29.85R
LOWELL           N/A     75  57  53 CALM      29.84R
COEUR D`ALENE  CLEAR     73  45  35 N8        29.99R
MULLAN PASS    CLEAR     51  43  74 VRB3      30.19R
$$



USA.gov is the U.S. government's official web portal to all federal, state and local government web resources and services.